Reflectivity
-20 -20 -20 -20 -20 -20 -20 -20 -20 -20 -20 -20 -20 -20 -18 -2 -20 0 -20 -19 -15 -9 6 6 7 19 12 29 22 1 -20 -17 34 34 6 -20 -17 -18 13 33 25 37 38
-20 -20 -20 -20 -20 -20 -20 -20 -20 -20 -20 -20 -20 -20 -20 -20 -14 -20 -0 -1 -18 -16 -6 -4 5 13 2 10 9 25 -20 7 34 27 40 20 25 11 14 23 26 33 29
-20 -20 -20 -20 -20 -20 -20 -20 -20 -20 -20 -20 -20 -20 -20 -20 -20 -20 -20 -20 -3 6 10 18 15 20 17 27 31 21 -20 -9 14 23 12 23 10 18 30 34 33 2 6
-20 -20 -20 -20 -20 -20 -20 -20 -20 -20 -20 -20 -20 -20 -20 -20 -20 -20 -20 -20 -20 -6 14 23 22 23 23 14 19 13 9 4 -13 -1 21 15 21 24 27 35 37 31 15
-20 -20 -20 -20 -20 -20 -20 -20 -20 -20 -20 -20 -20 -20 -20 -20 -20 -20 -20 -20 -20 -15 1 11 16 18 20 18 6 22 21 24 27 31 31 26 36 37 28 33 35 40 34
-20 -20 -20 -20 -20 -20 -20 -20 -20 -20 -20 -20 -20 -20 -20 -20 -20 -20 -20 -20 -18 -20 -5 7 7 15 15 19 4 13 21 24 23 24 17 25 23 30 29 21 24 27 29
-20 -20 -20 -20 -20 -20 -20 -20 -20 -20 -20 -20 -20 -20 -20 -20 -20 -20 -20 -20 -20 -7 -1 -6 5 5 -2 4 7 4 5 3 -6 -5 -2 -5 5 11 10 17 28 28 25
-20 -20 -20 -20 -20 -20 -20 -20 -20 -20 -20 -20 -20 -20 -20 -20 -20 -20 -20 -20 -20 -20 -15 3 5 3 7 -2 -8 3 -2 3 4 4 1 3 -3 6 11 16 19 23 19
-20 -20 -20 -20 -20 -20 -20 -20 -20 -20 -20 -20 -20 -20 -20 -20 -20 -20 -20 -20 -20 -20 -19 -6 -14 -2 2 0 2 -5 -7 -1 -12 0 1 -3 11 -5 1 8 14 14 8
-20 -20 -20 -20 -20 -20 -20 -20 -20 -20 -20 -20 -20 -20 -20 -20 -20 -20 -20 -20 -20 -20 -20 -20 -20 -3 -14 -6 -3 4 6 2 -4 -2 -4 -8 -8 -1 -12 -19 -7 4 -7
-20 -20 -20 -20 -20 -20 -20 -20 -20 -20 -20 -20 -20 -20 -20 -20 -20 -20 -20 -20 -17 -20 -20 -20 -20 -20 -20 -20 -20 -20 -3 -3 2 7 5 7 8 6 4 -1 -8 -18 -20
-20 -20 -20 -20 -20 -20 -20 -20 -20 -20 -20 -20 -5 -20 -20 -20 -20 -20 -20 -20 -14 -20 -20 -20 -20 -7 -4 -20 -20 -20 -20 -20 -17 -20 -6 -6 -1 -2 -2 2 -2 -2 -6
-20 -20 -20 -20 -20 -20 -20 -20 -20 -20 -20 -20 -20 -14 -20 -20 -20 -20 -20 -20 -20 -20 -19 -20 -20 -7 -8 -20 -19 -20 -20 -20 -20 -20 -20 -20 -20 -16 -20 -20 -12 -14 -17
-20 -20 -20 -20 -20 -20 -20 -20 -20 -20 -20 -20 -15 -20 -19 -20 -20 -20 -20 -20 -20 -20 -20 -20 -20 -19 -20 -20 -20 -20 -20 -20 -20 -20 -17 -20 -20 -20 -20 -20 -20 -20 -20
-20 -20 -20 -20 -20 -20 -20 -20 -20 -20 -20 -20 -20 -20 -20 -20 -20 -20 -20 -20 -20 -20 -20 5 -20 -20 -20 -20 -20 -20 -20 -20 -20 -20 -20 -20 -20 -20 -20 -20 -20 -20 -20
-20 -20 -20 -20 -20 -20 -20 -20 -20 -20 -20 -20 -20 -20 -15 -20 -20 -20 -20 -20 -20 -20 -20 -20 1 -11 -8 -18 -20 -20 -20 -20 -20 -20 -20 -20 -20 -20 -20 -20 -20 -20 -20
-20 -20 -20 -20 -20 -20 -20 -20 -20 -20 -20 -20 -20 -20 -20 -20 -20 -20 -20 -20 -2 -20 -19 -20 -20 -20 -20 -6 -20 -20 -20 -20 -20 -20 -20 -20 -20 -20 -20 -20 -20 -20 -20
-20 -20 -20 -20 -20 -20 -20 -20 -20 -15 -18 -20 -20 -20 -20 -20 -20 -20 -20 -20 -18 -20 -20 -20 -20 -20 -20 -20 -20 -10 6 -20 -20 -20 -20 -20 -20 -20 -20 -20 -20 -20 -20
-20 -20 -20 -20 -20 -20 -20 -20 -20 -20 -20 -20 -4 -20 -20 -20 -20 -14 -8 4 -20 -20 -20 -20 -20 -20 -20 -20 -20 -20 -20 -2 4 -6 -20 -20 -20 -20 -20 -18 -14 -20 -20
-20 -20 -20 -20 -20 -20 -20 -20 -14 -20 -4 0 0 -3 -8 -20 -20 -20 -20 -20 -20 -20 -20 -20 -20 -20 -20 -20 -20 -20 -20 -20 -20 -6 1 -6 -20 -20 -20 -20 -20 -20 -10
-20 -20 -20 -20 -3 -6 -4 -1 -4 -20 -4 -6 -20 -20 -20 -20 -20 -20 -20 -20 -20 -20 -20 -20 -20 -20 -20 -20 -6 -19 -20 -20 -20 1 -20 -20 -20 3 -20 -20 -20 -20 -8
1 -20 -20 -20 -0 -16 -15 2 -7 -20 -16 -4 -16 -15 -20 -7 -20 -20 -20 -20 -20 -20 -20 -20 -20 -18 -20 -9 -8 -20 -11 -20 -6 -18 -20 -20 -20 -20 -9 6 -20 -20 -20
-20 -10 -10 -6 -16 -20 -20 -20 -7 9 -10 -20 -20 -20 -20 -20 -20 -20 -20 -20 -20 -20 -20 -20 -20 -20 -20 -20 -20 -12 -20 -17 -20 -20 -20 -20 -20 -20 -20 -20 2 -20 -20
-20 -14 -20 -17 -20 -20 2 11 -16 -20 -20 -20 -20 -20 -20 -20 -20 -20 -20 -20 -20 -20 -20 -20 -20 -8 -20 -20 -20 -20 -2 -20 -20 -20 -20 -20 -20 -4 -18 -20 -2 -20 -5
-20 -20 -20 -20 -6 12 8 7 -20 -20 -20 -20 -20 -20 -20 -20 -20 -20 -20 -20 -20 -20 -20 -20 -8 -18 -20 -20 -20 -5 -20 -20 -20 -20 -20 -20 -20 -20 -20 -19 3 -19 -20
-7 -16 1 4 7 -13 -11 -20 -18 -20 -20 -20 -20 -20 -20 -20 -20 -20 -20 -20 -20 -20 -20 -11 -20 -20 -20 -13 -5 -17 -20 -20 -20 -20 -20 -20 -20 -20 -20 3 -18 -20 -20
Wind_Speed
7 7 7 7 8 8 8 8 9 12 13 14 14 15 15 15 16 15 15 17 18 17 18 17 16 14 8 8 7 6 6 4 1 8 5 9 10 11 10 7 12 14 14
3 4 4 3 4 5 4 5 6 9 12 12 13 14 15 15 16 16 16 16 18 18 18 21 19 12 15 12 10 10 10 9 1 10 8 9 9 12 10 11 8 10 11
4 1 2 2 2 4 4 3 2 6 8 10 12 12 13 13 14 15 17 16 16 18 18 17 20 21 17 13 14 11 13 10 13 11 10 8 8 7 9 8 9 12 12
7 6 1 5 4 4 1 5 3 6 5 4 9 12 12 11 14 15 15 15 17 17 17 18 18 20 20 19 15 14 14 13 13 12 11 9 5 6 4 6 5 9 8
3 4 4 6 6 7 7 8 8 10 10 6 9 12 13 12 11 13 15 17 17 16 16 17 18 22 31 31 15 19 14 13 10 12 12 10 7 12 13 7 3 2 11
6 6 5 6 6 6 8 8 9 11 12 12 13 14 15 12 24 24 17 14 16 15 16 16 16 22 22 29 30 33 27 14 14 10 11 11 12 9 8 9 7 4 3
6 7 7 7 7 7 9 9 9 10 11 13 13 14 16 16 28 20 20 12 13 16 17 16 15 15 20 14 21 25 26 28 20 13 15 14 13 12 9 9 10 7 6
7 7 7 7 8 8 8 9 9 9 10 11 12 13 13 15 27 25 19 11 12 15 16 17 16 18 21 17 15 17 17 17 18 13 14 13 13 11 11 10 9 6 4
7 7 8 8 8 8 8 8 8 8 8 9 9 11 11 13 26 25 18 12 12 14 14 16 16 17 28 27 16 16 15 15 18 26 24 24 24 26 21 8 11 8 4
6 6 7 7 7 7 7 7 7 7 7 6 7 8 15 10 23 25 18 9 11 10 11 12 23 21 27 28 16 14 15 14 12 12 13 15 17 16 20 12 7 8 6
7 7 7 6 5 5 5 4 4 4 4 3 4 5 5 11 11 21 22 9 7 7 7 8 8 21 23 24 20 14 15 9 9 8 9 9 10 10 9 10 9 6 7
7 7 5 5 5 4 3 3 3 3 2 2 3 4 6 8 18 18 20 18 15 4 4 3 5 18 19 21 15 23 21 10 7 7 8 8 8 8 8 8 7 7 4
8 6 6 5 4 3 4 4 4 4 3 4 5 5 6 7 7 17 18 18 16 7 7 9 14 15 15 10 19 18 10 8 7 8 8 8 7 6 8 7 7 9 9
7 6 5 4 4 4 4 5 5 6 5 5 5 5 5 6 5 6 6 7 12 9 9 7 5 6 5 4 4 6 3 4 5 5 4 2 3 3 6 5 4 7 5
7 6 5 4 3 7 6 5 6 5 5 5 4 5 4 3 4 9 9 5 4 7 8 2 2 3 3 3 3 3 3 3 3 3 3 3 5 6 7 6 5 4 5
5 4 4 4 3 5 7 6 10 8 7 7 8 4 1 3 7 11 11 10 17 14 5 3 3 3 3 3 2 2 2 3 2 2 2 4 5 6 7 7 7 7 8
5 5 5 1 3 3 1 5 6 3 4 4 4 4 1 2 5 9 13 15 12 10 2 2 2 3 3 4 3 2 2 2 2 2 2 2 4 5 7 7 7 7 8
6 7 5 3 4 3 3 3 2 3 5 5 9 8 6 5 8 9 12 12 4 6 4 4 4 5 6 7 7 7 4 2 1 2 2 2 2 2 4 6 7 6 8
5 3 3 3 2 2 2 2 1 2 1 2 3 4 6 8 9 10 7 2 2 3 5 6 5 6 7 7 6 6 8 9 7 2 2 1 1 1 2 3 5 5 6
3 6 3 3 4 3 2 2 2 2 2 2 1 3 3 2 2 2 2 2 3 3 4 6 6 6 6 7 6 6 7 8 9 8 7 3 2 1 1 2 3 5 7
5 5 2 1 3 3 2 2 1 0 1 1 4 3 4 2 2 3 3 4 5 4 4 5 6 6 6 7 7 7 7 7 9 9 8 9 11 6 2 2 3 5 7
4 6 4 3 2 2 1 1 1 0 1 2 3 4 3 1 3 3 4 4 3 5 5 5 5 6 6 7 7 7 8 7 9 8 8 8 9 9 10 7 2 2 5
2 3 4 2 2 5 2 1 1 1 2 3 3 3 3 3 3 3 4 3 5 4 5 5 5 6 6 6 5 7 7 8 7 8 8 9 9 9 9 9 7 2 3
2 3 2 3 2 2 1 1 2 4 3 3 3 3 3 3 3 3 4 4 3 3 4 5 5 6 6 4 5 5 6 6 6 6 8 8 9 11 11 11 10 3 3
3 3 3 1 2 2 2 2 3 3 3 3 3 3 4 3 4 4 5 3 4 6 6 6 5 6 6 8 7 6 6 7 6 7 7 10 11 14 14 11 8 2 3
3 3 2 2 2 3 4 4 4 4 4 4 3 3 4 4 4 5 4 5 6 5 6 5 7 8 9 7 8 10 7 8 7 7 8 8 10 10 11 13 7 2 4
Wind_Direction
24 56 63 37 41 38 30 36 29 28 20 15 16 12 14 11 11 15 19 18 15 17 15 12 4 2 16 356 14 21 26 347 277 50 27 41 45 54 34 47 67 65 63
42 29 35 91 28 34 25 11 29 49 36 22 16 16 14 15 19 19 18 16 18 15 18 19 12 4 18 16 33 20 40 355 81 104 50 39 43 48 25 46 56 72 60
105 79 353 347 109 28 2 18 28 68 55 37 23 15 14 24 20 24 25 15 21 17 14 20 16 15 16 20 31 23 40 36 55 62 46 15 34 27 53 29 9 58 67
164 138 76 344 67 117 350 14 80 69 90 58 38 18 14 16 32 26 27 20 27 19 13 20 23 23 23 26 26 30 39 44 44 61 65 35 4 344 58 47 19 25 48
73 72 93 88 41 53 49 38 43 43 48 49 48 31 16 17 32 33 32 26 28 18 18 21 21 33 37 39 36 30 31 48 44 51 57 54 17 22 28 9 9 295 38
110 104 79 76 75 61 57 57 47 48 41 40 44 36 25 16 18 39 42 41 29 24 25 20 22 22 37 38 47 51 51 40 54 55 52 42 25 14 7 25 18 330 22
98 87 79 72 68 64 67 54 53 52 50 42 37 41 33 19 16 28 47 42 40 32 29 24 22 20 24 34 37 46 52 53 52 52 53 41 34 19 6 10 21 43 37
85 81 77 74 71 60 55 67 62 55 51 49 41 39 37 28 21 17 39 41 44 38 27 35 27 29 28 23 30 37 33 39 42 45 49 37 36 24 18 18 4 21 98
86 78 69 68 61 59 59 53 52 66 60 55 58 40 44 35 33 25 23 33 35 39 30 23 31 29 33 32 28 36 39 35 35 41 44 39 29 33 29 22 20 13 4
97 94 91 84 74 75 64 48 52 55 53 63 58 62 43 41 37 36 31 27 32 29 30 21 29 35 33 34 29 26 33 24 24 31 31 31 24 18 21 23 5 11 8
118 106 101 80 72 73 59 86 100 65 54 63 91 90 71 46 26 37 36 21 35 28 22 12 5 35 35 38 39 34 32 16 20 30 30 24 20 14 14 3 359 0 358
132 123 108 110 106 88 23 124 73 90 91 82 83 85 62 49 31 21 29 27 20 31 10 345 350 27 35 34 39 37 27 16 19 25 28 25 18 15 7 353 341 335 301
144 138 127 114 90 74 96 37 28 49 53 38 38 47 65 49 34 21 15 17 14 14 356 12 18 27 34 33 39 39 25 16 18 19 22 16 10 359 349 336 346 348 346
149 139 144 149 152 152 114 86 47 19 12 44 35 40 41 47 22 14 9 357 358 355 348 321 12 11 30 36 40 50 22 21 17 6 0 351 337 340 346 335 350 351 348
157 152 135 137 192 94 70 28 100 59 46 43 17 53 36 27 353 1 1 340 331 324 333 316 5 357 350 360 17 39 30 24 5 347 1 6 4 353 354 353 353 349 2
150 154 153 168 168 147 146 118 86 120 103 85 75 68 80 38 355 350 356 345 327 318 313 359 355 354 339 340 19 24 37 26 343 6 349 9 8 357 356 354 359 6 356
175 164 126 96 185 144 90 144 148 148 148 163 169 148 155 282 329 328 330 338 352 5 7 351 1 351 334 345 358 23 11 352 339 351 354 1 4 355 360 352 354 358 351
78 54 99 68 53 53 44 58 35 149 190 197 228 210 215 264 294 290 300 322 352 360 4 1 359 357 0 359 1 353 341 320 314 327 346 356 6 2 357 347 348 348 343
112 110 106 112 91 82 132 173 183 205 237 274 148 196 199 245 352 350 302 318 1 2 6 1 357 360 358 352 350 348 348 346 338 300 318 322 325 8 328 332 338 338 330
128 112 159 146 129 192 192 206 200 210 249 271 359 57 107 5 355 323 3 23 14 15 10 355 355 358 353 348 346 352 353 353 345 342 340 310 312 348 316 327 330 338 335
134 138 174 263 176 189 188 202 233 302 309 334 86 90 102 321 356 13 3 28 22 10 13 3 358 354 355 354 357 1 355 343 336 340 8 354 349 334 313 318 325 330 331
141 147 173 212 188 161 175 22 0 0 317 18 58 150 211 350 20 13 17 23 15 27 16 14 359 352 355 0 4 353 345 340 342 356 357 347 339 329 327 322 291 304 316
129 146 168 171 128 114 204 232 221 1 56 47 39 26 18 29 27 23 16 23 30 21 24 10 1 350 348 6 358 358 347 339 2 350 342 330 322 319 312 309 295 284 313
142 130 156 101 93 30 358 68 78 79 51 36 28 22 27 27 23 17 30 28 25 20 24 12 342 327 357 1 357 334 336 5 344 326 328 313 303 311 313 305 300 285 318
107 109 106 155 159 186 136 47 62 62 51 38 26 26 20 20 13 18 27 15 26 30 6 329 313 351 355 345 322 343 5 340 311 340 342 319 305 303 294 281 280 348 315
133 129 127 112 79 72 63 55 46 34 35 30 25 26 27 17 12 23 4 33 18 347 319 348 334 350 328 322 335 353 332 333 351 335 319 305 307 308 315 318 330 305 313